Regional Weather Roundup
Issued by NWS Jackson, KY

Home | Current Version | Previous Version | Graphics & Text | Print | Product List | Glossary On
Versions: 1 2 3 4 5 6 7 8 9 10 11 12 13 14 15 16 17 18 19 20 21 22 23 24 25 26 27 28 29 30 31 32 33 34 35 36 37 38 39 40 41 42 43 44 45 46 47 48 49 50
000
ASUS43 KJKL 051710
RWRJKL

EAST KENTUCKY HOURLY WEATHER ROUNDUP
NATIONAL WEATHER SERVICE JACKSON KY
100 PM EDT SUN JUL 05 2015

NOTE: "FAIR" INDICATES FEW OR NO CLOUDS BELOW 12,000 FEET WITH
NO SIGNIFICANT WEATHER AND/OR OBSTRUCTIONS TO VISIBILITY.

* THESE REPORTS ARE NOT UNDER NWS QUALITY CONTROL AND MAY NOT
  REPORT WEATHER SUCH AS PRECIPITATION AND FOG.

KYZ079-080-083-085-087-088-110-112-115-119-120-051800
...EASTERN KENTUCKY...

CITY           SKY/WX    TMP DP  RH WIND       PRES   REMARKS
JACKSON        CLOUDY    70  68  93 CALM      30.10S
LONDON         LGT RAIN  70  65  84 N8        30.08S
SOMERSET*      CLOUDY    72  68  88 N5        30.09F
MONTICELLO*    CLOUDY    73  71  93 NE7       30.11S FOG
MIDDLESBORO*   DRIZZLE   71  69  94 S6        30.07S
HARLAN APT*      N/A     68  68 100 S3        30.10R VSB 1
HAZARD APT*    CLOUDY    72  70  94 CALM      30.09F
BLACK MTN*       N/A     70  64  83 CALM        N/A
PIKEVILLE APT* CLOUDY    75  66  73 NE5       30.11S
BIG SANDY*     PTSUNNY   76  69  77 N3        30.11S
MOREHEAD APT*  CLOUDY    70  64  83 CALM      30.12S
$$

KYZ035-036-041-042-044-050-067-078-099-051800
...CENTRAL KENTUCKY...

CITY           SKY/WX    TMP DP  RH WIND       PRES   REMARKS
MT STERLING*   LGT RAIN  68  68 100 CALM      30.11F
FLEMING/MASON* SUNNY     72  63  73 N5        30.11F
DANVILLE*      CLOUDY    72  66  83 NE5       30.10S
RICHMOND*      CLOUDY    70  66  88 CALM      30.09S
LEXINGTON      CLOUDY    73  67  81 CALM      30.09F
FRANKFORT      CLOUDY    74  62  66 NE6       30.08F
$$

KYZ091>093-OHZ055-061-077-WVZ005-015-034-035-042-051800
...SOUTHERN OHIO/WEST VIRGINIA...

CITY           SKY/WX    TMP DP  RH WIND       PRES   REMARKS
COVINGTON      CLOUDY    75  61  61 E7        30.11F
COLUMBUS       CLOUDY    78  59  51 NE6       30.11F
DAYTON         CLOUDY    79  59  50 NE7       30.13F
WILMINGTON     CLOUDY    74  58  57 E3        30.12S
HUNTINGTON     CLOUDY    71  68  90 NE5       30.09S
CHARLESTON     CLOUDY    78  68  71 N3        30.10S
PINEVILLE*     MOSUNNY   81  69  67 MISG      30.16S
BECKLEY        PTSUNNY   75  64  68 SE10G18   30.17F
BLUEFIELD      PTSUNNY   76  64  66 E6        30.18F
$$

VAZ002-007-008-TNZ017-027-036-066-071-051800
...SOUTHWEST VIRGINIA/EAST TENNESSEE...

CITY           SKY/WX    TMP DP  RH WIND       PRES   REMARKS
WISE*          CLOUDY    75  61  60 SE6       30.14F
JONESVILLE*      N/A    N/A N/A N/A MISG        N/A
ABINGDON*      CLOUDY    81  65  56 CALM      30.10F
BRISTOL        PTSUNNY   81  65  58 VRB3      30.07F
KNOXVILLE      CLOUDY    75  67  76 SW14      30.07S
OAK RIDGE      CLOUDY    72  68  87 W6        30.08F
CROSSVILLE     PTSUNNY   74  66  76 N8        30.12S
NASHVILLE      CLOUDY    75  71  87 CALM      30.09F
$$

...KEY TO REMARKS...
VSB - VISIBILITY IN MILES
WCI - WIND CHILL INDEX
HX  - HEAT INDEX

$$


USA.gov is the U.S. government's official web portal to all federal, state and local government web resources and services.